Regional Weather Roundup
Issued by NWS

Home | Current Version | Previous Version | Graphics & Text | Print | Product List | Glossary On
Versions: 1 2 3 4 5 6 7 8 9 10 11 12 13 14 15 16 17 18 19 20 21 22 23 24 25 26 27 28 29 30 31 32 33 34 35 36 37 38 39 40 41 42 43 44 45 46 47 48 49 50
000
ASUS43 KFSD 030602
RWRSD

WEATHER ROUNDUP FOR SOUTH DAKOTA
NATIONAL WEATHER SERVICE SIOUX FALLS SD
100 AM CDT WED JUN 03 2015

NOTE: "FAIR" INDICATES FEW OR NO CLOUDS BELOW 12,000 FEET WITH NO
SIGNIFICANT WEATHER AND/OR OBSTRUCTIONS TO VISIBILITY.


SDZ001>005-009-010-012>017-030700-
NORTHWEST AND NORTH CENTRAL SOUTH DAKOTA

CITY           SKY/WX    TMP DP  RH WIND       PRES   REMARKS
BUFFALO          N/A     56  51  84 NW8       29.86F
FAITH            N/A     61  53  75 W12       29.90R
MOBRIDGE       CLOUDY    67  61  81 NW14      29.78R
$$

SDZ012>016-024>037-041>051-057-063-072>074-030700-
SOUTHWEST AND SOUTH CENTRAL SOUTH DAKOTA

CITY           SKY/WX    TMP DP  RH WIND       PRES   REMARKS
RAPID CTY ARPT MOCLDY    57  52  83 N9        29.93R
PIERRE         LGT RAIN  68  62  81 E5        29.80R
CUSTER         PTCLDY    49  50 100 N5        30.02R
ELLSWORTH AFB  CLOUDY    57  54  89 N8        29.90F
PHILIP         TSTM      58  56  93 W45G61    29.96R FOG
PINE RIDGE     MOCLDY    62  54  74 N15       29.93S
WINNER         LGT RAIN  65  58  78 NW17G28   29.83F
$$

SDZ004>011-016>023-039-040-030700-
NORTHEAST SOUTH DAKOTA

CITY           SKY/WX    TMP DP  RH WIND       PRES   REMARKS
ABERDEEN       CLOUDY    72  64  76 S14       29.71S
WATERTOWN      CLOUDY    68  61  78 S12       29.77F
BROOKINGS      CLOUDY    68  61  77 S16G25    29.80F
SISSETON         N/A     72  63  73 SW21G29   29.69S
$$

SDZ017-020-022-023-036>040-048>070-030700-
SOUTHEAST SOUTH DAKOTA

CITY           SKY/WX    TMP DP  RH WIND       PRES   REMARKS
SIOUX FALLS    CLOUDY    67  59  75 S15G23    29.83F
HURON          CLOUDY    72  63  73 S10       29.76R
MITCHELL       CLOUDY    71  62  73 S15G28    29.80R
YANKTON        CLOUDY    66  61  82 S8G20     29.82S
$$

ABBREVIATIONS USED IN REMARKS
   TC - TEMPERATURE IN CELSIUS
  WCI - WIND CHILL INDEX
   HX - HEAT INDEX
  VSB - VISIBILITY




USA.gov is the U.S. government's official web portal to all federal, state and local government web resources and services.